CW5084 Weather Reports


Display with metric or nautical units.
time (UTC)temp
F
wind
direction
speed
MPH
gust
MPH
rain 1hr
in
rain 24hr
in
rain mn
in
humidity
%
barometer
mb
20260507004042 42 313 0.0 0.0 0.00 0.55 0.50 95 1009.1
20260507003043 42 313 0.0 0.0 0.00 0.55 0.50 95 1009.0
20260507002043 42 313 0.0 0.0 0.00 0.55 0.50 95 1008.7
20260507001043 42 313 0.0 3.0 0.00 0.55 0.50 95 1008.8
20260507000043 42 313 1.0 4.0 0.00 0.56 0.50 95 1008.7
20260506235043 42 313 3.0 4.0 0.00 0.56 0.50 95 1008.5
20260506234042 42 313 2.0 3.0 0.00 0.57 0.50 95 1008.2
20260506233042 42 313 1.0 3.0 0.00 0.57 0.50 95 1008.1
20260506232043 42 313 0.0 3.0 0.00 0.58 0.50 95 1007.6
20260506231043 42 313 2.0 3.0 0.00 0.58 0.50 95 1007.7
20260506225042 42 313 3.0 5.0 0.00 0.58 0.50 95 1007.7
20260506224042 42 313 2.0 8.0 0.00 0.58 0.50 95 1007.9
20260506223042 42 313 4.0 6.0 0.00 0.58 0.50 96 1007.9
20260506222042 42 313 4.0 6.0 0.00 0.58 0.50 96 1007.7
20260506221042 42 311 3.0 6.0 0.00 0.58 0.50 96 1007.9
20260506220042 42 311 6.0 6.0 0.00 0.58 0.50 96 1007.7
20260506215042 42 312 3.0 10.0 0.00 0.58 0.50 96 1007.6
20260506214042 42 311 5.0 10.0 0.00 0.58 0.50 96 1007.5
20260506213042 42 311 8.0 10.0 0.00 0.58 0.50 96 1007.5
20260506212042 42 311 5.0 12.0 0.00 0.58 0.50 96 1007.4
20260506205042 42 313 9.0 10.0 0.00 0.58 0.50 96 1007.0
20260506204042 42 321 3.0 11.0 0.01 0.58 0.50 96 1006.8
20260506203042 42 315 6.0 13.0 0.01 0.58 0.50 96 1006.7
20260506202042 42 321 12.0 13.0 0.01 0.59 0.50 95 1006.6
20260506201042 43 355 10.0 11.0 0.02 0.59 0.50 95 1006.6
20260506200042 43 351 5.0 12.0 0.03 0.59 0.50 96 1006.6
20260506194042 43 317 5.0 10.0 0.03 0.58 0.49 95 1006.5
20260506193042 43 309 4.0 12.0 0.03 0.58 0.49 95 1006.3
20260506192041 44 324 4.0 11.0 0.03 0.58 0.49 95 1006.4
20260506191042 44 300 4.0 13.0 0.02 0.57 0.48 95 1006.3
20260506190042 44 326 2.0 11.0 0.01 0.56 0.47 95 1006.2
20260506185041 44 338 5.0 9.0 0.00 0.55 0.46 95 1006.1
20260506183042 44 323 4.0 9.0 0.01 0.57 0.46 96 1005.7
20260506181042 44 316 5.0 11.0 0.03 0.60 0.46 95 1005.6
20260506180042 44 320 9.0 10.0 0.03 0.60 0.46 95 1005.3
20260506175041 44 320 8.0 10.0 0.03 0.60 0.46 95 1005.2
20260506174041 44 321 2.0 6.0 0.03 0.59 0.45 96 1005.2
20260506173041 44 321 2.0 8.0 0.03 0.59 0.45 96 1005.2
20260506172041 43 325 6.0 9.0 0.02 0.58 0.44 96 1005.1
20260506171041 43 327 5.0 9.0 0.02 0.57 0.43 95 1005.0
20260506170041 43 330 4.0 8.0 0.02 0.57 0.43 95 1004.9
20260506165041 43 330 5.0 8.0 0.02 0.57 0.43 95 1004.9
20260506164041 43 332 2.0 6.0 0.01 0.56 0.42 95 1004.9
20260506163041 43 331 3.0 9.0 0.01 0.56 0.42 95 1005.0
20260506162041 43 321 3.0 10.0 0.02 0.56 0.42 95 1005.0
20260506161041 43 322 4.0 9.0 0.01 0.55 0.41 95 1005.0
20260506160041 43 328 1.0 8.0 0.02 0.55 0.41 95 1005.0
20260506155041 43 331 4.0 8.0 0.03 0.55 0.41 95 1005.1
20260506154041 43 332 3.0 6.0 0.04 0.55 0.41 95 1004.9
20260506153041 43 332 3.0 8.0 0.05 0.55 0.41 95 1005.1
20260506152041 43 339 8.0 8.0 0.05 0.54 0.40 95 1004.9
20260506151041 43 343 2.0 3.0 0.06 0.54 0.40 95 1004.6
20260506150041 43 343 0.0 4.0 0.06 0.53 0.39 95 1004.7
20260506145041 43 343 0.0 4.0 0.06 0.52 0.38 95 1004.8
20260506144041 43 343 3.0 6.0 0.06 0.51 0.37 95 1004.7
20260506142041 43 341 2.0 5.0 0.06 0.49 0.35 94 1004.7
20260506141041 43 340 2.0 4.0 0.07 0.48 0.34 94 1004.8
20260506140040 43 340 3.0 5.0 0.07 0.47 0.33 94 1004.7
20260506135040 43 340 0.0 5.0 0.08 0.46 0.32 94 1004.6
20260506134040 43 340 2.0 5.0 0.09 0.45 0.31 95 1004.8
20260506133040 43 340 4.0 5.0 0.09 0.44 0.30 94 1004.9
20260506132040 43 340 1.0 5.0 0.09 0.43 0.29 94 1004.9
20260506131041 43 340 2.0 5.0 0.09 0.41 0.27 95 1004.8
20260506125040 43 340 3.0 4.0 0.08 0.38 0.24 95 1004.9
20260506124040 43 340 1.0 5.0 0.07 0.36 0.22 95 1004.8
20260506123040 43 340 4.0 5.0 0.06 0.35 0.21 95 1004.8
20260506122040 43 340 3.0 5.0 0.06 0.34 0.20 95 1004.8
20260506121040 43 340 3.0 5.0 0.06 0.32 0.18 95 1004.9
20260506120040 43 340 4.0 6.0 0.07 0.31 0.17 94 1004.9
20260506115040 43 339 3.0 6.0 0.07 0.30 0.16 95 1005.0
20260506114040 43 342 3.0 6.0 0.07 0.29 0.15 95 1004.9
20260506112040 43 5 3.0 4.0 0.07 0.28 0.14 95 1004.8
20260506111040 43 5 1.0 5.0 0.06 0.26 0.12 95 1005.0
20260506103039 42 355 2.0 8.0 0.05 0.22 0.08 95 1005.6
20260506102040 43 5 3.0 11.0 0.04 0.22 0.07 95 1005.5
20260506100039 44 5 5.0 9.0 0.03 0.20 0.05 94 1005.9
20260506095039 44 344 6.0 6.0 0.03 0.19 0.04 94 1006.1
20260506094039 45 350 3.0 6.0 0.03 0.19 0.04 95 1006.0
20260506093039 45 355 1.0 10.0 0.03 0.18 0.03 95 1006.2
20260506092039 44 344 6.0 12.0 0.03 0.18 0.03 95 1006.1
20260506091039 45 329 9.0 11.0 0.02 0.17 0.02 95 1006.1
20260506090039 45 355 2.0 6.0 0.02 0.17 0.02 94 1005.9
20260506085039 45 351 2.0 6.0 0.01 0.16 0.01 95 1005.9
20260506084039 45 347 3.0 10.0 0.01 0.16 0.01 95 1006.1
20260506083039 45 5 3.0 8.0 0.00 0.15 0.00 95 1005.9
20260506082039 46 5 3.0 8.0 0.00 0.15 0.00 95 1006.0
20260506081039 46 34 4.0 6.0 0.00 0.15 0.00 95 1005.8
20260506073039 46 48 2.0 5.0 0.00 0.20 0.00 94 1005.7
20260506072039 46 48 2.0 9.0 0.00 0.20 0.00 95 1005.9
20260506071038 46 55 1.0 7.0 0.00 0.20 0.00 94 1005.8
20260506062038 46 293 7.0 14.0 0.00 0.20 0.00 94 1006.5
20260506061038 46 22 1.0 5.0 0.00 0.21 0.00 94 1007.1
20260506051038 46 9 0.0 4.0 0.00 0.21 0.00 93 1008.2
20260506044038 46 9 1.0 4.0 0.00 0.21 0.00 93 1007.9
20260506043038 47 9 1.0 4.0 0.00 0.21 0.00 93 1007.8
20260506042038 47 9 1.0 4.0 0.00 0.21 0.00 93 1007.7
20260506040037 46 9 2.0 4.0 0.01 0.21 0.00 93 1008.3
20260506034037 46 5 1.0 3.0 0.04 0.21 0.21 92 1008.3
20260506033037 47 5 0.0 4.0 0.05 0.21 0.21 92 1008.1
20260506032037 47 5 1.0 3.0 0.05 0.21 0.21 91 1008.5
20260506031037 47 5 0.0 4.0 0.05 0.21 0.21 91 1008.8
20260506024037 47 9 0.0 6.0 0.01 0.17 0.17 89 1008.7
20260506022037 47 331 1.0 5.0 0.00 0.16 0.16 88 1008.7
20260506020037 47 343 3.0 6.0 0.00 0.16 0.16 85 1008.1
20260506015037 48 355 5.0 8.0 0.00 0.16 0.16 85 1008.0
20260506014037 48 330 4.0 16.0 0.00 0.16 0.16 83 1008.1
20260506012037 51 329 5.0 9.0 0.00 0.16 0.16 79 1007.8
20260506011037 51 345 4.0 8.0 0.00 0.16 0.16 78 1007.9